Regional Weather Roundup
Issued by NWS Binghamton, NY

Home | Current Version | Previous Version | Text Only | Print | Product List | Glossary On
Versions: 1 2 3 4 5 6 7 8 9 10 11 12 13 14 15 16 17 18 19 20 21 22 23 24 25 26 27
000
ASUS41 KBGM 050310
RWRBGM

REGIONAL WEATHER ROUNDUP
NATIONAL WEATHER SERVICE BINGHAMTON NY
1100 PM EDT WED MAY 04 2016

Note: "fair" indicates few or no clouds below 12,000 feet with no
significant weather and/or obstructions to visibility.

* = Station(s) that does not report precipitation, such as rain,
snow, etc, also no thunder or fog.

NYZ009-015>018-022>025-036-037-044>046-055>057-062-050400
...Central New York...

CITY           SKY/WX    TMP DP  RH WIND       PRES   REMARKS
Binghamton     CLOUDY    46  45  96 SE5       29.74S FOG
Cortland       MOCLDY    50  45  81 E5        29.75S
Dansville      CLOUDY    53  48  83 CALM      29.73R
Elmira         CLOUDY    53  44  71 E6        29.73S
Ithaca         CLOUDY    49  45  86 SE5       29.75S
Hamilton       CLOUDY    48  43  81 CALM      29.76F
Hornell        CLOUDY    52  48  87 CALM      29.75S
Monticello     CLOUDY    43  41  93 E10       29.77S
Norwich        CLOUDY    48  41  76 SE3       29.77F
Penn Yan       CLOUDY    52  50  93 CALM      29.74S
Rome           CLOUDY    50  44  80 SE10      29.79F
Sidney         CLOUDY    50  46  87 NE5       29.76S
Syracuse       PTCLDY    48  44  86 E9        29.76R
$$

PAZ038>040-043-044-047-048-072-050400
...Northeast Pennsylvania...

CITY           SKY/WX    TMP DP  RH WIND       PRES   REMARKS
Hazleton       CLOUDY    45  45 100 CALM      29.75F
Scranton       CLOUDY    49  44  83 CALM      29.73F
$$
&&
KEY
WCI = Wind Chill Index
VSB = Visibility
HX  = Heat Index
$$




USA.gov is the U.S. government's official web portal to all federal, state and local government web resources and services.